[[{"header":{"parameterUnit":"m.s-1","parameterCategory":1,"la1":30.2991,"la2":30.254,"lo1":-89.0895,"lo2":-89.0444,"dy":0.0017,"dx":0.0017,"nx":28,"ny":28,"refTime":"2025-07-24T09:00:00:Z","depth":0,"parameterNumber":2,"parameterNumberName":"U-component_of_WINDS"},"data":[0,0,0,0,0,0,0,0,0,0,0,0,0,0,0,0,0,0,0,0,0,0,0,0,0,0,0,0,0,0,0,0,0,0,0,0,0,0,0,0,0,0,0,0,0,0,0,0,0,0,0,0,0,0,0,0,0,0,-0.9568,-0.9568,0,-0.9571,-0.9571,-0.9571,-0.9532,-0.9531,-0.9529,-0.9528,-0.9536,-0.9537,-0.9538,0,0,0,0,0,0,0,0,0,0,0,0,0,-0.953,-0.9531,-0.9568,-0.9568,-0.9568,-0.9571,-0.9571,-0.9571,-0.9532,-0.953,-0.9529,-0.9528,-0.9536,-0.9537,-0.9538,0,0,0,0,0,0,0,0,0,0,0,0,0,-0.9541,-0.9531,-0.9568,-0.9548,-0.9547,-0.9571,-0.9571,-0.9571,-0.9532,-0.953,-0.9529,-0.9527,-0.9535,-0.9537,-0.9539,-0.9583,0,0,-0.9544,-0.9545,0,0,0,0,0,0,0,0,-0.9541,-0.9543,-0.9551,-0.955,-0.9548,-0.9549,-0.956,-0.9575,-0.9532,-0.9538,-0.9528,-0.9526,-0.9542,-0.9543,-0.9547,-0.9583,-0.9583,-0.9544,-0.9545,-0.9546,-0.9547,0,0,0,0,0,0,0,-0.954,-0.9542,-0.9569,-0.9551,-0.9549,-0.9541,-0.954,-0.9563,-0.9549,-0.9537,-0.9534,-0.9535,-0.9541,-0.9546,-0.9547,-0.9583,-0.9544,-0.9546,-0.9547,-0.9548,-0.9654,-0.9655,0,0,0,0,0,0,-0.9541,-0.9542,-0.9569,-0.9569,-0.954,-0.9542,-0.9542,-0.955,-0.9549,-0.9547,-0.9536,-0.9533,-0.9543,-0.9545,-0.9547,-0.9598,-0.9546,-0.9548,-0.9549,-0.9652,-0.9654,-0.9656,0,0,0,0,0,0,-0.9541,-0.9544,-0.9569,-0.9555,-0.9557,-0.9545,-0.9554,-0.9551,-0.9556,-0.9548,-0.9546,-0.9544,-0.9542,-0.9545,-0.9573,-0.9598,-0.9549,-0.955,-0.965,-0.9653,-0.9655,-0.97,0,0,0,0,0,0,-0.954,-0.9544,-0.956,-0.9555,-0.9558,-0.9594,-0.9556,-0.9553,-0.9559,-0.9555,-0.9554,-0.9553,-0.9541,-0.9571,-0.9575,-0.9599,-0.9552,-0.9648,-0.9651,-0.9654,-0.9696,-0.9704,-0.971,0,0,0,0,0,-0.9539,-0.9574,-0.9561,-0.9565,-0.9578,-0.9596,-0.9597,-0.9582,-0.9561,-0.9578,-0.9572,-0.9553,-0.9594,-0.9574,-0.9579,-0.9604,-0.9646,-0.965,-0.9654,-0.9693,-0.9702,-0.971,0,0,0,0,0,0,-0.9584,-0.9573,-0.9559,-0.9594,-0.9596,-0.9589,-0.9609,-0.9592,-0.9602,-0.9597,-0.9579,-0.9579,-0.9611,-0.961,-0.9588,-0.9645,-0.9617,-0.9622,-0.9645,-0.9654,-0.966,-0.966,-0.9553,0,0,0,0,0,-0.9598,-0.9612,-0.9602,-0.9634,-0.9635,-0.9622,-0.963,-0.9617,-0.9619,-0.962,-0.9617,-0.9621,-0.9634,-0.9644,-0.9656,-0.9696,-0.9695,-0.9715,-0.9722,-0.9728,-0.9733,-0.9753,-0.9761,-0.9669,-0.9669,-0.9669,0,0,-0.9628,-0.9623,-0.9634,-0.9643,-0.9643,-0.9659,-0.9623,-0.9642,-0.9654,-0.9624,-0.965,-0.9647,-0.965,-0.9684,-0.9699,-0.9685,-0.9758,-0.9733,-0.9737,-0.9739,-0.9758,-0.9766,-0.9774,-0.9671,-0.9671,-0.967,0,0,-0.9689,-0.9687,-0.9713,-0.9713,-0.9713,-0.9703,-0.9709,-0.9705,-0.9701,-0.9727,-0.9704,-0.9718,-0.9742,-0.9745,-0.9749,-0.9809,-0.9792,-0.9814,-0.9851,-0.987,-0.9878,-0.9884,-0.9906,-0.9913,-0.9818,-0.9818,-0.9819,0,-0.9727,-0.9748,-0.9729,-0.9748,-0.9753,-0.9723,-0.9749,-0.9751,-0.9756,-0.976,-0.9743,-0.9771,-0.9771,-0.9805,-0.9819,-0.9824,-0.9831,-0.9814,-0.9878,-0.9884,-0.989,-0.991,-0.9918,-0.9821,-0.9821,-0.9821,-0.982,0,-0.9794,-0.9809,-0.983,-0.9833,-0.984,-0.9863,-0.9847,-0.9856,-0.9843,-0.9835,-0.9861,-0.986,-0.9871,-0.9877,-0.9865,-0.9909,-0.99,-0.9881,-0.9852,-0.9902,-0.992,-0.9928,-0.9825,-0.9824,-0.9823,-0.9823,0,0,-0.9887,-0.9876,-0.9884,-0.9884,-0.9881,-0.9893,-0.9914,-0.9923,-0.9931,-0.9935,-0.9953,-0.9972,-0.9954,-0.9959,-0.9946,-0.9964,-1.0011,-0.9942,-0.9942,-0.9955,-1.0059,-1.0074,-1.0083,-0.9999,-1.0,-1.0001,-1.0059,0,-0.9947,-0.9981,-0.9963,-1.0,-1.0014,-0.9985,-1.0004,-1.0004,-0.9997,-1.0008,-1.0001,-1.0015,-0.999,-0.9992,-1.0008,-1.0002,-1.0032,-0.9997,-1.0016,-1.0017,-1.0017,-1.0093,-1.0109,-1.0164,-1.0066,-1.0067,-1.0068,0,-1.0022,-1.0026,-1.0064,-1.0056,-1.0062,-1.0078,-1.0084,-1.0095,-1.0094,-1.0088,-1.0092,-1.0075,-1.0096,-1.0066,-1.0094,-1.0071,-1.0078,-1.0075,-1.0077,-1.0079,-1.0046,-1.0097,-1.0181,-1.0189,-1.0079,-1.0078,-1.0078,0,-1.0086,-1.0101,-1.0126,-1.0127,-1.0118,-1.0131,-1.0128,-1.0125,-1.0131,-1.0136,-1.014,-1.0148,-1.0153,-1.016,-1.0145,-1.0125,-1.0176,-1.0145,-1.0172,-1.0172,-1.0185,-1.0185,-1.0271,-1.0188,-1.0188,-1.0188,-1.0188,0,-1.0155,-1.018,-1.0154,-1.0169,-1.0196,-1.0174,-1.0201,-1.0195,-1.0193,-1.0207,-1.0183,-1.0197,-1.0176,-1.0188,-1.0177,-1.0202,-1.0205,-1.0201,-1.0198,-1.0203,-1.0204,-1.0208,-1.0204,-1.019,-1.0189,-1.0189,-1.0189,0,-1.0232,-1.0215,-1.024,-1.0229,-1.0226,-1.0247,-1.0237,-1.0251,-1.0241,-1.0259,-1.0262,-1.0248,-1.026,-1.0246,-1.0258,-1.0251,-1.0284,-1.0276,-1.0284,-1.0282,-1.031,-1.0308,-1.0402,-1.0414,-1.0323,-1.0324,-1.0325,0,-1.0278,-1.0295,-1.0285,-1.0292,-1.029,-1.0301,-1.0306,-1.0285,-1.0292,-1.0291,-1.0305,-1.0315,-1.0322,-1.0344,-1.0335,-1.0344,-1.0335,-1.0368,-1.0337,-1.0341,-1.0336,-1.0335,-1.0337,-1.0375,-1.0376,-1.0377,-1.0377,0,-1.0361,-1.0351,-1.0358,-1.0362,-1.0368,-1.0371,-1.0372,-1.0379,-1.0357,-1.0366,-1.0377,-1.0383,-1.0393,-1.0404,-1.041,-1.0408,-1.0389,-1.0387,-1.0393,-1.04,-1.0404,-1.0402,-1.0302,-1.0385,-1.0384,-1.0384,-1.0383,-1.0383,-1.0424,-1.0437,-1.0432,-1.044,-1.0438,-1.0439,-1.0451,-1.0442,-1.045,-1.0456,-1.0444,-1.0458,-1.0456,-1.0461,-1.0461,-1.0473,-1.0459,-1.0469,-1.0472,-1.0474,-1.0478,-1.0401,-1.0474,-1.0474,-1.0473,-1.0473,-1.0473,0,-1.0505,-1.0499,-1.0507,-1.0508,-1.0515,-1.0494,-1.0494,-1.0501,-1.0514,-1.0512,-1.0518,-1.0531,-1.0541,-1.0531,-1.0539,-1.055,-1.0542,-1.0553,-1.0552,-1.0552,-1.049,-1.0484,-1.0559,-1.0559,-1.0559,-1.0559,-1.0559,-1.0559,-1.0549,-1.0571,-1.056,-1.0581,-1.0575,-1.0588,-1.0589,-1.059,-1.0588,-1.0603,-1.061,-1.0603,-1.0598,-1.0605,-1.0612,-1.0609,-1.0614,-1.0628,-1.0622,-1.0565,-1.0557,-1.0549,-1.0542,-1.0629,-1.0629,-1.0683,-1.0683,-1.0684]},{"header":{"parameterUnit":"m.s-1","parameterCategory":1,"la1":30.2991,"la2":30.254,"lo1":-89.0895,"lo2":-89.0444,"dy":0.0017,"dx":0.0017,"nx":28,"ny":28,"refTime":"2025-07-24T09:00:00:Z","depth":0,"parameterNumber":3,"parameterNumberName":"V-component_of_WINDS"},"data":[0,0,0,0,0,0,0,0,0,0,0,0,0,0,0,0,0,0,0,0,0,0,0,0,0,0,0,0,0,0,0,0,0,0,0,0,0,0,0,0,0,0,0,0,0,0,0,0,0,0,0,0,0,0,0,0,0,0,-1.7849,-1.7851,0,-1.8,-1.8002,-1.8004,-1.8002,-1.8,-1.7998,-1.7996,-1.8153,-1.8159,-1.8165,0,0,0,0,0,0,0,0,0,0,0,0,0,-1.7559,-1.7565,-1.7849,-1.7851,-1.7853,-1.8,-1.8002,-1.8004,-1.8003,-1.8,-1.7998,-1.7995,-1.8151,-1.8158,-1.8165,0,0,0,0,0,0,0,0,0,0,0,0,0,-1.7695,-1.7566,-1.7849,-1.787,-1.7873,-1.7999,-1.8002,-1.8005,-1.8003,-1.8,-1.7997,-1.7994,-1.8149,-1.8157,-1.8166,-1.8282,0,0,-1.8194,-1.8198,0,0,0,0,0,0,0,0,-1.7688,-1.7706,-1.7865,-1.7869,-1.7873,-1.7979,-1.7957,-1.8098,-1.8004,-1.7954,-1.7996,-1.7993,-1.8098,-1.8111,-1.8146,-1.829,-1.8296,-1.8195,-1.82,-1.8204,-1.8207,0,0,0,0,0,0,0,-1.7678,-1.7699,-1.7909,-1.7867,-1.7872,-1.7872,-1.7888,-1.7984,-1.8041,-1.7958,-1.7958,-1.7976,-1.8099,-1.8137,-1.8149,-1.8299,-1.8194,-1.8203,-1.8208,-1.8212,-1.8543,-1.8547,0,0,0,0,0,0,-1.7664,-1.7692,-1.7904,-1.7913,-1.7771,-1.7879,-1.7897,-1.7948,-1.804,-1.8051,-1.7978,-1.7975,-1.8123,-1.8139,-1.8155,-1.8296,-1.8204,-1.8213,-1.8218,-1.854,-1.8544,-1.8548,0,0,0,0,0,0,-1.7658,-1.7683,-1.7898,-1.7803,-1.783,-1.7887,-1.7945,-1.7953,-1.799,-1.8055,-1.8065,-1.8007,-1.8121,-1.8142,-1.825,-1.8302,-1.8217,-1.8225,-1.8536,-1.8541,-1.8546,-1.858,0,0,0,0,0,0,-1.765,-1.7681,-1.7726,-1.7804,-1.7835,-1.7991,-1.7948,-1.7958,-1.8006,-1.8003,-1.8084,-1.8095,-1.8121,-1.8237,-1.8259,-1.8313,-1.8232,-1.8532,-1.8538,-1.8544,-1.8575,-1.8586,-1.8595,0,0,0,0,0,-1.7639,-1.773,-1.7728,-1.7754,-1.7892,-1.7994,-1.8012,-1.8039,-1.801,-1.8056,-1.8097,-1.8092,-1.8292,-1.8248,-1.8273,-1.833,-1.8529,-1.8537,-1.8544,-1.857,-1.8583,-1.8595,0,0,0,0,0,0,-1.7659,-1.7741,-1.774,-1.7858,-1.7919,-1.7993,-1.8052,-1.8053,-1.8124,-1.8118,-1.8149,-1.8167,-1.8275,-1.8313,-1.8262,-1.8446,-1.8407,-1.842,-1.8418,-1.8431,-1.8441,-1.8431,-1.8239,0,0,0,0,0,-1.7676,-1.7752,-1.782,-1.7918,-1.7948,-1.7994,-1.804,-1.8055,-1.812,-1.8146,-1.8195,-1.8258,-1.8334,-1.8385,-1.8459,-1.8579,-1.8597,-1.8631,-1.8641,-1.8649,-1.866,-1.8726,-1.8742,-1.8573,-1.8573,-1.8573,0,0,-1.7714,-1.7769,-1.7815,-1.7923,-1.7972,-1.8049,-1.8016,-1.81,-1.8158,-1.8159,-1.8263,-1.8301,-1.8373,-1.8488,-1.8541,-1.8523,-1.871,-1.8659,-1.8665,-1.8672,-1.8735,-1.8751,-1.8766,-1.8578,-1.8577,-1.8576,0,0,-1.7824,-1.7872,-1.7959,-1.8008,-1.8081,-1.8111,-1.8132,-1.8206,-1.8231,-1.8336,-1.8338,-1.8406,-1.8538,-1.8589,-1.8633,-1.8757,-1.8756,-1.8781,-1.8835,-1.8899,-1.8912,-1.8924,-1.8969,-1.8984,-1.8791,-1.8792,-1.8792,0,-1.7862,-1.7979,-1.8003,-1.8087,-1.8134,-1.8136,-1.8224,-1.827,-1.8365,-1.8398,-1.8375,-1.854,-1.8589,-1.8714,-1.8745,-1.8779,-1.8804,-1.8773,-1.8908,-1.892,-1.8932,-1.8975,-1.8992,-1.8794,-1.8794,-1.8794,-1.8793,0,-1.8022,-1.8102,-1.8163,-1.8253,-1.8307,-1.8392,-1.843,-1.8481,-1.8491,-1.8523,-1.8629,-1.8687,-1.8773,-1.8803,-1.8814,-1.8931,-1.8917,-1.8901,-1.8863,-1.895,-1.8991,-1.9008,-1.8798,-1.8797,-1.8796,-1.8795,0,0,-1.8151,-1.8251,-1.8273,-1.8313,-1.8393,-1.8456,-1.854,-1.8623,-1.8666,-1.873,-1.8802,-1.8912,-1.8897,-1.8946,-1.8962,-1.9018,-1.9113,-1.8995,-1.8997,-1.9015,-1.9244,-1.9257,-1.9275,-1.9111,-1.9114,-1.9117,-1.9238,0,-1.8269,-1.8419,-1.8442,-1.8574,-1.8649,-1.865,-1.8723,-1.878,-1.8812,-1.8879,-1.8914,-1.8991,-1.8966,-1.8995,-1.905,-1.9089,-1.9159,-1.9081,-1.9179,-1.9182,-1.9162,-1.9297,-1.9311,-1.9423,-1.9254,-1.9257,-1.9259,0,-1.8428,-1.8495,-1.8634,-1.8702,-1.8734,-1.88,-1.8876,-1.894,-1.9004,-1.9023,-1.9076,-1.9085,-1.9172,-1.9128,-1.9248,-1.9194,-1.9235,-1.9261,-1.9266,-1.9277,-1.9227,-1.9313,-1.9459,-1.9476,-1.9285,-1.9283,-1.9281,0,-1.8508,-1.8633,-1.8732,-1.8766,-1.8848,-1.8894,-1.893,-1.8991,-1.9038,-1.9105,-1.9136,-1.9212,-1.9254,-1.9313,-1.9342,-1.9307,-1.946,-1.9419,-1.9479,-1.9478,-1.9513,-1.9511,-1.9669,-1.9537,-1.9537,-1.9537,-1.9536,0,-1.8639,-1.8724,-1.8769,-1.883,-1.8925,-1.895,-1.9044,-1.9078,-1.9132,-1.92,-1.9205,-1.9269,-1.9302,-1.9371,-1.9394,-1.949,-1.9509,-1.9527,-1.9532,-1.9527,-1.9525,-1.9556,-1.9549,-1.9541,-1.954,-1.9539,-1.9539,0,-1.8747,-1.878,-1.8888,-1.8955,-1.8974,-1.9041,-1.9099,-1.9158,-1.9187,-1.9273,-1.9294,-1.9341,-1.9422,-1.9455,-1.9555,-1.957,-1.9681,-1.968,-1.9659,-1.9661,-1.972,-1.9714,-1.9905,-1.9931,-1.9781,-1.9782,-1.9783,0,-1.8829,-1.8894,-1.8967,-1.9012,-1.905,-1.9123,-1.917,-1.9197,-1.9246,-1.9322,-1.9372,-1.9452,-1.9518,-1.9646,-1.9689,-1.9765,-1.9767,-1.9828,-1.9778,-1.9771,-1.9769,-1.9765,-1.9771,-1.9838,-1.9839,-1.984,-1.9841,0,-1.8971,-1.8983,-1.9052,-1.9125,-1.9182,-1.9241,-1.93,-1.9336,-1.9371,-1.9426,-1.9508,-1.9559,-1.9659,-1.9738,-1.9816,-1.9853,-1.9854,-1.9856,-1.9874,-1.9871,-1.9857,-1.9866,-1.9685,-1.9852,-1.9851,-1.9851,-1.985,-1.9849,-1.9069,-1.9127,-1.9187,-1.9262,-1.9308,-1.9361,-1.942,-1.9455,-1.9524,-1.9607,-1.9617,-1.9705,-1.9765,-1.9869,-1.9909,-1.9978,-1.9962,-1.9988,-1.9995,-2.0002,-2.0006,-1.9844,-1.9992,-1.9991,-1.9991,-1.9991,-1.9991,0,-1.9212,-1.925,-1.9319,-1.9399,-1.9458,-1.9451,-1.9514,-1.9564,-1.964,-1.9696,-1.9759,-1.9853,-1.9929,-1.9977,-2.0054,-2.0099,-2.0101,-2.0119,-2.0117,-2.0125,-2.0015,-1.9992,-2.0116,-2.0116,-2.0116,-2.0116,-2.0116,-2.0116,-1.9294,-1.9391,-1.941,-1.9529,-1.9566,-1.9651,-1.9687,-1.9736,-1.9781,-1.9884,-1.9947,-1.9977,-2.0029,-2.0109,-2.0179,-2.0191,-2.0219,-2.0238,-2.0249,-2.0146,-2.0133,-2.0121,-2.0099,-2.0244,-2.0244,-2.0354,-2.0355,-2.0356]}]]